User: anonymous   Login
Location: Unspecified
(0.0000°N, 0.0000°E)
Time: 06:54:25
(UTC+00:00)
Language:

TBA - TO BE ASSIGNED - Orbit

View from above orbital plane
View from above orbital plane
View from above satellite
View from above satellite

Ground track
Ground track

The orbit is defined by the following mean orbital elements,

1 67878U          26145.43387344 +.00000000 +00000-0 +68437-3 0 00004
2 67878  53.1593 207.9067 0000859  52.3217 307.7862 15.30202077    07
Epoch (UTC): 25 May 2026 10:24:46
Eccentricity: 0.0000859
inclination: 53.1593°
perigee height: 475 km
apogee height: 476 km
right ascension of ascending node: 207.9067°
argument of perigee: 52.3217°
revolutions per day: 15.30202077
mean anomaly at epoch: 307.7862°

The dashed part of the orbit path shows where the satellite is in the earth's shadow,  

DLR